Погода в Хэфэе

Китай     31°49′18″N   117°16′39″E
темп.,
°C
ветер,
м/с
пор.,
м/с
влажн.,
%
обл.,
%
осадки,
мм/ч
давл.,
гПа
погр.,
м
15 апреля, чт
чт1523:00+12всв3676100 0.0 1019194
02:00+12вюв4879100 0.0 1017401
05:00+11в5877100 0.0 1015322
08:00+11в3477100 0.0 1017208
11:00+16ююв226840 0.0 1016530
14:00+20сз1260100 0.0 1014990
17:00+20сз2264100 0.0 1014730
20:00+16зсз227990 0.0 101625
16 апреля, пт
пт1623:00+15юз46902 0.0 101697
02:00+15зюз479168 0.0 1016126
05:00+13зсз498481 0.0 1017215
08:00+15ссз4756100 0.0 1019308
11:00+18с3332100 0.0 1020600
14:00+19з2331100 0.0 1019721
17:00+19зюз2342100 0.0 1018380
20:00+15з2250100 0.0 102031
17 апреля, сб
сб1723:00+13зюз3355100 0.0 102036
02:00+12з346270 0.0 102052
05:00+10сз356931 0.0 102195
08:00+13ссз4748100 0.0 1025300
11:00+18ссз4528100 0.0 10261102
14:00+20ссз562699 0.0 10231682
17:00+19ссз443571 0.0 10231460
20:00+14с3348100 0.0 102443
18 апреля, вс
вс1823:00+13ссв2244100 0.0 102424
02:00+11ссв2245100 0.0 102423
05:00+10всв114712 0.0 102228
08:00+14юв224366 0.0 1024245
11:00+19вюв4432100 0.0 1022911
14:00+20вюв4430100 0.0 10191029
17:00+19юв2444100 0.0 1018132
20:00+16в3550100 0.0 101996
19 апреля, пн
пн1923:00+14вюв455212 0.0 101887
02:00+13в33570 0.0 101754
05:00+12вюв33550 0.0 101750
08:00+16вюв34520 0.0 1018295
11:00+20вюв45400 0.0 1017717
14:00+23юв44360 0.0 1015945
17:00+23вюв45410 0.0 1013869
20:00+18в48550 0.0 1014128